TimeEST,TemperatureF,Dew PointF,Humidity,Sea Level PressureIn,VisibilityMPH,Wind Direction,Wind SpeedMPH,Gust SpeedMPH,PrecipitationIn,Events,Conditions,WindDirDegrees,DateUTC
12:10 AM,26.6,24.8,93,30.51,10.0,Calm,Calm,-,N/A,,Clear,0,2013-01-28 05:10:00
12:32 AM,28.4,26.6,93,30.53,10.0,Calm,Calm,-,N/A,,Clear,0,2013-01-28 05:32:00
12:53 AM,30.2,28.4,93,30.52,10.0,SE,3.5,-,N/A,,Clear,130,2013-01-28 05:53:00
1:14 AM,32.0,30.2,93,30.50,10.0,SE,3.5,-,N/A,,Clear,130,2013-01-28 06:14:00
1:36 AM,32.0,30.2,93,30.51,10.0,SE,3.5,-,N/A,,Clear,140,2013-01-28 06:36:00
1:57 AM,32.0,30.2,93,30.50,10.0,SSE,4.6,-,N/A,,Clear,150,2013-01-28 06:57:00
2:18 AM,32.0,30.2,93,30.50,10.0,SSE,4.6,-,N/A,,Clear,150,2013-01-28 07:18:00
2:40 AM,32.0,30.2,93,30.48,10.0,SSE,4.6,-,N/A,,Clear,150,2013-01-28 07:40:00
3:01 AM,32.0,30.2,93,30.47,10.0,SSE,4.6,-,N/A,,Clear,160,2013-01-28 08:01:00
3:22 AM,32.0,30.2,93,30.47,10.0,South,4.6,-,N/A,,Clear,170,2013-01-28 08:22:00
3:44 AM,32.0,30.2,93,30.46,10.0,SSE,4.6,-,N/A,,Clear,160,2013-01-28 08:44:00
4:05 AM,32.0,30.2,93,30.45,10.0,Calm,Calm,-,N/A,,Clear,0,2013-01-28 09:05:00
4:26 AM,32.0,30.2,93,30.45,10.0,South,4.6,-,N/A,,Clear,170,2013-01-28 09:26:00
4:48 AM,32.0,30.2,93,30.44,10.0,South,5.8,-,N/A,,Clear,170,2013-01-28 09:48:00
5:09 AM,33.8,32.0,93,30.44,10.0,South,5.8,-,N/A,,Clear,170,2013-01-28 10:09:00
5:30 AM,35.6,32.0,87,30.43,10.0,South,3.5,-,N/A,,Clear,170,2013-01-28 10:30:00
5:52 AM,35.6,32.0,87,30.43,10.0,South,4.6,-,N/A,,Clear,170,2013-01-28 10:52:00
6:13 AM,35.6,32.0,87,30.43,10.0,South,5.8,-,N/A,,Clear,180,2013-01-28 11:13:00
6:55 AM,35.6,32.0,87,30.44,7.0,Calm,Calm,-,N/A,,Mostly Cloudy,0,2013-01-28 11:55:00
7:17 AM,35.6,32.0,87,30.44,7.0,South,4.6,-,N/A,,Overcast,190,2013-01-28 12:17:00
7:38 AM,35.6,32.0,87,30.44,4.0,South,5.8,-,N/A,,Overcast,180,2013-01-28 12:38:00
7:59 AM,35.6,32.0,87,30.43,4.0,South,5.8,-,N/A,,Overcast,190,2013-01-28 12:59:00
8:20 AM,35.6,33.8,93,30.43,5.0,South,4.6,-,N/A,,Overcast,190,2013-01-28 13:20:00
8:42 AM,35.6,33.8,93,30.43,4.0,South,6.9,-,N/A,,Overcast,180,2013-01-28 13:42:00
9:03 AM,35.6,33.8,93,30.41,5.0,South,8.1,-,N/A,,Overcast,180,2013-01-28 14:03:00
9:24 AM,35.6,33.8,93,30.41,4.0,South,5.8,-,N/A,,Overcast,190,2013-01-28 14:24:00
10:07 AM,35.6,33.8,93,30.39,3.0,SSW,6.9,-,N/A,,Overcast,200,2013-01-28 15:07:00
10:28 AM,35.6,33.8,93,30.38,4.0,South,9.2,-,N/A,,Overcast,180,2013-01-28 15:28:00
10:49 AM,35.6,33.8,93,30.37,4.0,South,8.1,-,N/A,,Overcast,190,2013-01-28 15:49:00
11:10 AM,35.6,33.8,93,30.36,5.0,South,9.2,-,N/A,,Overcast,190,2013-01-28 16:10:00
11:11 AM,35.6,33.8,93,30.36,5.0,South,11.5,16.1,N/A,,Overcast,190,2013-01-28 16:11:00
11:32 AM,35.6,33.8,93,30.34,4.0,South,8.1,16.1,N/A,,Overcast,190,2013-01-28 16:32:00
11:53 AM,35.6,33.8,93,30.32,5.0,South,11.5,16.1,N/A,,Overcast,180,2013-01-28 16:53:00
12:14 PM,35.6,33.8,93,30.29,5.0,South,10.4,16.1,N/A,,Overcast,190,2013-01-28 17:14:00
12:57 PM,37.4,35.6,93,30.25,7.0,South,9.2,-,N/A,,Overcast,190,2013-01-28 17:57:00
1:18 PM,37.4,35.6,93,30.22,10.0,South,12.7,-,N/A,,Overcast,180,2013-01-28 18:18:00
1:39 PM,41.0,37.4,87,30.20,10.0,SSW,11.5,16.1,N/A,,Mostly Cloudy,210,2013-01-28 18:39:00
2:01 PM,41.0,35.6,81,30.18,10.0,SSW,15.0,23.0,N/A,,Scattered Clouds,200,2013-01-28 19:01:00
2:22 PM,41.0,35.6,81,30.19,10.0,SSW,6.9,-,N/A,,Scattered Clouds,210,2013-01-28 19:22:00
2:43 PM,41.0,35.6,81,30.17,10.0,South,10.4,-,N/A,,Clear,190,2013-01-28 19:43:00
3:04 PM,41.0,35.6,81,30.16,10.0,South,6.9,-,N/A,,Clear,180,2013-01-28 20:04:00
3:26 PM,41.0,35.6,81,30.15,10.0,South,9.2,-,N/A,,Scattered Clouds,170,2013-01-28 20:26:00
3:47 PM,41.0,35.6,81,30.14,10.0,South,6.9,-,N/A,,Scattered Clouds,170,2013-01-28 20:47:00
4:08 PM,41.0,35.6,81,30.14,10.0,South,8.1,-,N/A,,Mostly Cloudy,180,2013-01-28 21:08:00
4:29 PM,41.0,35.6,81,30.13,10.0,SSE,4.6,-,N/A,,Mostly Cloudy,160,2013-01-28 21:29:00
4:51 PM,41.0,35.6,81,30.15,10.0,South,3.5,-,N/A,,Mostly Cloudy,180,2013-01-28 21:51:00
5:12 PM,41.0,35.6,81,30.13,10.0,SSE,5.8,-,N/A,,Scattered Clouds,160,2013-01-28 22:12:00
5:33 PM,41.0,35.6,81,30.13,10.0,Calm,Calm,-,N/A,,Scattered Clouds,0,2013-01-28 22:33:00
5:54 PM,41.0,37.4,87,30.12,10.0,SSE,3.5,-,N/A,,Mostly Cloudy,160,2013-01-28 22:54:00
6:15 PM,41.0,37.4,87,30.12,10.0,South,4.6,-,N/A,,Mostly Cloudy,180,2013-01-28 23:15:00
6:37 PM,41.0,37.4,87,30.12,10.0,South,4.6,-,N/A,,Scattered Clouds,180,2013-01-28 23:37:00
6:58 PM,42.8,39.2,87,30.12,10.0,South,3.5,-,N/A,,Scattered Clouds,190,2013-01-28 23:58:00
7:19 PM,42.8,39.2,87,30.11,10.0,South,4.6,-,N/A,,Mostly Cloudy,170,2013-01-29 00:19:00
7:40 PM,42.8,37.4,81,30.10,10.0,South,4.6,-,N/A,,Scattered Clouds,170,2013-01-29 00:40:00
8:02 PM,42.8,37.4,81,30.09,10.0,South,4.6,-,N/A,,Clear,170,2013-01-29 01:02:00
8:23 PM,42.8,37.4,81,30.10,10.0,South,5.8,-,N/A,,Clear,170,2013-01-29 01:23:00
8:44 PM,41.0,37.4,87,30.09,10.0,SSE,4.6,-,N/A,,Scattered Clouds,160,2013-01-29 01:44:00
9:05 PM,41.0,37.4,87,30.08,10.0,South,5.8,-,N/A,,Scattered Clouds,170,2013-01-29 02:05:00
9:27 PM,41.0,37.4,87,30.08,10.0,SSE,4.6,-,N/A,,Clear,150,2013-01-29 02:27:00
9:48 PM,37.4,35.6,93,30.08,10.0,SSE,3.5,-,N/A,,Clear,160,2013-01-29 02:48:00
10:09 PM,37.4,35.6,93,30.08,10.0,SSE,3.5,-,N/A,,Clear,160,2013-01-29 03:09:00
10:30 PM,37.4,35.6,93,30.07,7.0,South,3.5,-,N/A,,Clear,190,2013-01-29 03:30:00
10:52 PM,41.0,41.0,100,30.07,10.0,SSW,3.5,-,N/A,,Clear,200,2013-01-29 03:52:00
11:13 PM,44.6,42.8,93,30.06,10.0,SSW,6.9,-,N/A,,Clear,200,2013-01-29 04:13:00
11:34 PM,46.4,44.6,93,30.06,10.0,SSW,6.9,-,N/A,,Clear,200,2013-01-29 04:34:00
11:56 PM,44.6,41.0,87,30.07,10.0,SW,4.6,-,N/A,,Clear,230,2013-01-29 04:56:00